Regional Weather Roundup
Issued by NWS

Home | Current Version | Previous Version | Text Only | Print | Product List | Glossary On
Versions: 1 2 3 4 5 6 7 8 9 10 11 12 13 14 15 16 17 18 19 20 21 22 23 24 25 26 27 28 29 30 31 32 33 34 35 36 37 38 39 40 41 42 43 44 45 46 47 48 49 50
000
ASUS43 KDTX 260010
RWRMI
MICHIGAN HOURLY REGIONAL WEATHER ROUNDUP
NATIONAL WEATHER SERVICE DETROIT/PONTIAC MI
800 PM EDT SAT OCT 25 2014

NOTE: "FAIR" INDICATES FEW OR NO CLOUDS BELOW 12,000 FEET WITH NO
SIGNIFICANT WEATHER AND/OR OBSTRUCTION TO VISIBILITY.

MIZ047>049-052>055-059>063-066>070-074>076-081>083-260100-
SOUTHEAST LOWER MICHIGAN

CITY           SKY/WX    TMP DP  RH WIND       PRES   REMARKS
ADRIAN         CLEAR     59  31  34 NW8       29.83R
6HR MIN TEMP:  59; 6HR MAX TEMP:  69;

ALMA           CLEAR     55  31  40 W9        29.80R
ANN ARBOR      CLEAR     58  29  33 NW12      29.80R
BAD AXE        CLEAR     53  38  56 W9        29.72S
6HR MIN TEMP:  53; 6HR MAX TEMP:  66;

CARO           CLEAR     53  34  48 W5        29.75R
DETROIT CITY   CLEAR     63  31  30 W10G25    29.76R
6HR MIN TEMP:  63; 6HR MAX TEMP:  70;

DETROIT        CLEAR     60  32  34 W15       29.79R
6HR MIN TEMP:  60; 6HR MAX TEMP:  69;

FLINT          CLEAR     57  34  41 W12       29.79R
6HR MIN TEMP:  57; 6HR MAX TEMP:  69;

GROSSE ILE     CLEAR     61  27  27 W8        29.77R
HILLSDALE      CLEAR     58  31  35 W8        29.84R
HOWELL         CLEAR     56  30  37 W13G21    29.80R

CITY           SKY/WX    TMP DP  RH WIND       PRES   REMARKS
JACKSON        CLEAR     57  32  38 W8        29.82R
6HR MIN TEMP:  57; 6HR MAX TEMP:  68;

LAMBERTVILLE   CLEAR     61  30  31 W6        29.83R
LANSING        CLEAR     57  32  38 W13       29.83R
6HR MIN TEMP:  57; 6HR MAX TEMP:  67;

LAPEER         FAIR      57  30  35 NW10      29.76R
MASON          CLEAR     55  34  44 NW9       29.82R
MONROE         CLEAR     57  32  38 W10       29.79R
MT. CLEMENS    CLEAR     61  31  32 W17G26    29.72R
6HR MIN TEMP:  61; 6HR MAX TEMP:  67;

PONTIAC        CLEAR     57  32  38 W17G26    29.76S
6HR MIN TEMP:  57; 6HR MAX TEMP:  66;

PORT HOPE        N/A     57  33  40 W12G21    29.69R
6HR MIN TEMP:  57; 6HR MAX TEMP:  67;

PORT HURON     CLEAR     59  34  38 W12G17    29.73R
TRI CITIES     CLEAR     56  31  38 W10       29.77R
6HR MIN TEMP:  56; 6HR MAX TEMP:  69;

TROY           CLEAR     62  28  28 W13G21    29.78R
SAGINAW HB     CLEAR     55  32  41 W8        29.76S
$$
MIZ043>046-050>051-056>058-064>065-071>073-077>080-260100-
SOUTHWEST LOWER MICHIGAN

CITY           SKY/WX    TMP DP  RH WIND       PRES   REMARKS
BATTLE CREEK   CLEAR     59  31  34 W15       29.85R
6HR MIN TEMP:  59; 6HR MAX TEMP:  68;

BENTON HARBOR  CLEAR     57  43  59 W9        29.88S
6HR MIN TEMP:  56; 6HR MAX TEMP:  63;

BIG RAPIDS     CLEAR     55  38  53 W9G24     29.79S
6HR MIN TEMP:  55; 6HR MAX TEMP:  64;

COLDWATER      CLEAR     58  35  40 W8        29.85R
6HR MIN TEMP:  58; 6HR MAX TEMP:  68;

FREMONT        FAIR      56  28  33 W10G20    29.83R
HOLLAND        CLEAR     61  39  44 NW15G22   29.86R
6HR MIN TEMP:  59; 6HR MAX TEMP:  66;

GRAND RAPIDS   CLEAR     58  36  43 W14       29.83S
6HR MIN TEMP:  58; 6HR MAX TEMP:  67;

IONIA          FAIR      58  33  38 W9G16     29.82R
KALAMAZOO      CLEAR     60  32  34 W14       29.86R
6HR MIN TEMP:  60; 6HR MAX TEMP:  67;

LUDINGTON      CLEAR     55  44  67 W9        29.83R
6HR MIN TEMP:  55; 6HR MAX TEMP:  59;

MARSHALL       CLEAR     56  32  40 W10G18    29.84R
MOUNT PLEASANT CLEAR     55  32  41 W6        29.78R
6HR MIN TEMP:  55; 6HR MAX TEMP:  68;

MUSKEGON       CLEAR     58  40  51 NW13      29.84S
6HR MIN TEMP:  58; 6HR MAX TEMP:  63;

SOUTH HAVEN    CLEAR     59  46  61 NW7       29.88R
$$
MIZ016>042-260100-
NORTHERN LOWER MICHIGAN

CITY           SKY/WX    TMP DP  RH WIND       PRES   REMARKS
ALPENA         CLEAR     53  34  48 NW13G24   29.70R
6HR MIN TEMP:  53; 6HR MAX TEMP:  62;

BEAVER ISLAND  CLEAR     53  38  57 W7        29.76R
6HR MIN TEMP:  53; 6HR MAX TEMP:  60;

BELLAIRE       CLEAR     54  37  53 W6        29.76R
CADILLAC       CLEAR     51  32  48 W7        29.78R
CHARLEVOIX     CLEAR     54  41  61 NW17G23   29.78R
6HR MIN TEMP:  52; 6HR MAX TEMP:  59;

FRANKFORT      CLEAR     56  36  47 W8        29.80R
GAYLORD        CLEAR     50  34  54 VRB6      29.75R
6HR MIN TEMP:  50; 6HR MAX TEMP:  57;

GRAYLING       CLEAR     51  32  47 W7        29.75S
6HR MIN TEMP:  51; 6HR MAX TEMP:  60;

HARBOR SPRINGS CLEAR     53  32  45 W7        29.74R
HOUGHTON LAKE  CLEAR     52  32  46 W8        29.76R
6HR MIN TEMP:  52; 6HR MAX TEMP:  62;

MANISTEE       CLEAR     55  34  44 W17       29.81R
OSCODA         CLEAR     53  33  46 W12       29.69R
PELLSTON       CLEAR     52  32  46 NW22      29.73R
6HR MIN TEMP:  52; 6HR MAX TEMP:  59;

TRAVERSE CITY  CLEAR     52  35  52 W8        29.77R
6HR MIN TEMP:  52; 6HR MAX TEMP:  63;

$$
MIZ007>008-015-260100-
EASTERN UPPER MICHIGAN

CITY           SKY/WX    TMP DP  RH WIND       PRES   REMARKS
KINROSS        CLOUDY    52  34  50 W23G35    29.66S
6HR MIN TEMP:  52; 6HR MAX TEMP:  54;

MACKINAC ISLAN CLEAR     52  32  47 W23G37    29.70F
6HR MIN TEMP:  52; 6HR MAX TEMP:  58;

NEWBERRY       CLOUDY    50  33  53 W22G30    29.73R
S. S. MARIE    CLOUDY    51  36  56 W22G38    29.64S
6HR MIN TEMP:  51; 6HR MAX TEMP:  53;

MUNISING         N/A     55  31  39 NW8G17    29.76R
6HR MIN TEMP:  54; 6HR MAX TEMP:  59;

$$
MIZ004>006-011>014-085-260100-
CENTRAL UPPER MICHIGAN

CITY           SKY/WX    TMP DP  RH WIND       PRES   REMARKS
MANISTIQUE     CLEAR     51  30  44 NW8       29.76R
ESCANABA       CLEAR     54  27  35 NW10G20   29.79R
6HR MIN TEMP:  54; 6HR MAX TEMP:  63;

MENOMINEE      CLEAR     57  21  24 NW6       29.82R
6HR MIN TEMP:  57; 6HR MAX TEMP:  64;

SAWYER-GWINN   CLEAR     52  28  40 W17G29    29.78R
$$
MIZ001>003-009>011-084-260100-
WESTERN UPPER MICHIGAN

CITY           SKY/WX    TMP DP  RH WIND       PRES   REMARKS
IRON MOUNTAIN  CLEAR     54  22  28 NW16G25   29.83R
6HR MIN TEMP:  53; 6HR MAX TEMP:  61;

HOUGHTON       CLEAR     50  32  50 W24G33    29.80R
6HR MIN TEMP:  49; 6HR MAX TEMP:  53;

COPPER HARBOR    N/A     51  35  54 N21G31    29.75R
6HR MIN TEMP:  51; 6HR MAX TEMP:  54;

IRONWOOD       CLEAR     52  27  37 W15G21    29.88R
6HR MIN TEMP:  52; 6HR MAX TEMP:  57;

$$

ABBREVIATIONS USED IN REMARKS
   TC - TEMPERATURE IN CELSIUS
  WCI - WIND CHILL INDEX
   HX - HEAT INDEX
  VSB - VISIBILITY




USA.gov is the U.S. government's official web portal to all federal, state and local government web resources and services.